CYGFM05
Last updated on Sun Jun 21 2026 00:02:47 GMT+0000 (Coordinated Universal Time)
1 41884U 16078A 26171.32171544 .00019452 00000+0 26251-3 0 9990
2 41884 34.9559 239.8312 0007362 181.9302 178.1395 15.56789762529244
Next 0 passes for location: London (51.5072 / 0.1276)
No passes found over London.